Temp
18 19 19 19 20 20 20 21 21 22 22 23 23 23 23 24 24 24 24 24 25 25 24 23 23 25 26 27 29 30 26 19 21 22 32 34 34 33 32 27 24 24 26 26 24
18 18 19 19 20 20 20 21 21 22 22 23 23 24 24 24 24 25 24 25 25 25 24 24 25 26 28 29 30 31 24 22 27 30 34 35 35 34 26 20 19 26 24 25 24
17 18 19 19 20 20 21 21 22 22 22 23 23 24 24 24 24 27 26 25 25 25 23 25 27 28 29 30 32 32 25 25 26 34 34 35 35 35 25 24 27 25 25 25 25
17 18 18 19 20 20 20 21 22 22 23 23 23 24 24 24 29 26 26 26 26 25 24 27 28 29 30 31 32 33 33 29 34 34 34 35 34 35 35 27 29 27 26 26 25
17 18 18 19 19 20 20 21 21 22 22 23 23 24 24 23 27 27 26 27 26 25 25 27 28 29 30 32 33 33 34 34 34 34 34 34 34 34 31 30 27 26 26 26 26
17 18 18 19 19 20 20 21 21 22 22 23 23 24 23 26 26 27 26 26 26 24 26 28 29 30 31 32 33 34 34 34 34 34 34 35 33 31 31 31 29 28 28 28 27
17 17 18 19 19 20 20 21 22 22 22 23 23 23 22 26 26 25 26 25 25 25 28 28 29 30 31 32 33 33 33 34 34 34 35 34 30 28 30 31 31 30 29 29 27
17 17 18 19 19 20 20 21 22 22 23 23 23 23 24 26 26 25 25 26 27 27 28 29 28 29 30 31 32 32 33 31 34 33 35 34 30 26 30 28 31 31 30 29 28
17 17 18 18 19 20 20 21 22 22 22 23 23 22 27 26 26 26 26 27 27 27 27 28 28 28 30 31 31 32 31 32 23 24 34 34 31 31 29 28 32 31 30 29 28
17 18 18 19 19 20 21 22 23 22 22 22 22 22 25 27 27 27 27 27 27 27 27 27 28 29 30 31 30 32 32 27 19 24 34 34 34 32 31 34 33 31 30 30 28
16 17 18 19 19 20 22 22 22 21 20 25 27 27 29 28 27 27 27 27 27 28 28 28 28 29 31 32 32 33 33 33 22 32 33 33 33 34 34 32 33 32 27 30 29
16 17 18 18 19 20 21 21 22 22 23 25 27 28 29 28 27 27 27 27 28 28 29 30 28 31 33 33 33 33 32 32 33 34 33 33 33 34 25 21 23 28 31 31 29
15 16 17 18 20 20 21 22 21 22 24 26 28 28 29 28 29 29 27 28 29 29 30 30 32 33 32 32 32 32 32 32 32 34 34 33 32 32 22 21 28 30 32 31 30
14 16 17 18 19 20 22 21 22 22 24 29 30 29 29 28 29 29 28 28 30 29 30 31 32 33 32 32 32 31 33 33 32 32 31 34 31 32 26 26 27 26 32 31 30
14 15 16 17 18 19 21 21 21 22 24 32 30 29 29 28 31 29 29 28 29 30 31 31 32 32 31 32 33 32 34 33 32 32 31 32 31 30 31 26 24 25 25 31 30
13 14 15 15 17 20 20 21 22 23 24 30 30 29 30 29 31 31 30 29 29 31 32 32 33 33 33 33 33 33 32 32 31 31 29 31 31 30 26 25 24 27 31 30 28
13 14 15 15 17 19 19 21 23 23 30 31 30 31 30 30 30 31 30 29 28 28 28 31 32 33 33 32 33 32 31 29 28 29 29 31 32 31 32 29 29 30 30 29 26
14 15 16 16 17 18 19 22 21 27 28 32 32 32 31 31 31 31 30 29 29 30 30 29 29 32 33 32 32 31 31 29 28 29 28 28 24 26 32 31 32 31 30 28 25
14 15 15 17 17 16 19 21 23 26 29 30 31 29 30 31 32 31 30 30 30 30 29 30 31 34 34 33 32 32 30 32 30 31 30 29 29 30 32 31 31 31 30 29 25
13 14 17 18 17 17 20 20 25 28 29 29 28 29 29 31 31 31 31 31 31 32 32 31 30 33 34 33 33 32 33 30 30 27 27 30 30 27 26 24 30 30 30 29 25
13 17 20 19 18 18 20 22 25 26 27 27 27 28 29 30 31 31 31 32 32 32 33 32 30 31 33 32 31 31 30 31 31 31 29 29 25 25 22 24 24 30 29 28 25
12 19 19 18 19 20 21 23 24 27 27 27 27 27 28 29 30 30 30 32 33 33 32 32 31 29 31 33 33 33 32 31 29 29 30 30 25 25 19 20 22 28 29 28 25
13 18 19 19 19 21 22 23 25 26 27 27 26 27 28 28 27 29 30 32 32 32 31 32 30 28 29 32 32 31 32 32 31 30 29 29 28 25 22 19 26 29 28 27 23
12 19 19 19 19 21 23 24 24 25 27 26 27 27 27 27 28 27 29 31 31 31 28 29 29 29 29 30 30 30 31 32 31 30 30 30 25 24 22 21 21 22 27 26 23
13 18 19 21 21 21 22 23 24 25 26 25 25 26 27 26 27 27 28 30 31 28 29 29 27 29 30 31 31 31 32 32 31 31 30 30 28 23 19 20 23 24 26 25 24
13 14 15 17 18 20 19 22 23 25 25 25 25 26 27 26 26 26 28 28 28 30 29 29 27 28 28 31 31 31 32 32 32 32 32 32 20 20 19 22 20 20 23 24 24
10 11 12 15 18 19 21 22 23 24 25 25 26 26 26 26 27 27 28 27 28 28 28 27 28 27 27 30 30 29 31 31 32 32 32 28 21 19 20 19 20 22 23 23 23
Height
1515 1513 1512 1510 1509 1507 1506 1505 1504 1502 1500 1499 1497 1495 1494 1493 1492 1490 1489 1491 1490 1491 1491 1492 1493 1494 1494 1492 1491 1492 1508 1531 1520 1509 1471 1462 1462 1465 1471 1479 1494 1500 1494 1501 1506
1515 1514 1512 1510 1509 1507 1506 1505 1503 1502 1500 1498 1496 1494 1493 1492 1490 1487 1488 1488 1488 1490 1491 1494 1494 1494 1493 1489 1489 1489 1512 1524 1491 1477 1465 1461 1461 1464 1478 1487 1502 1502 1504 1506 1504
1515 1514 1512 1510 1509 1507 1506 1504 1503 1501 1500 1498 1496 1495 1493 1491 1489 1486 1486 1487 1487 1489 1492 1494 1494 1494 1490 1487 1484 1482 1499 1481 1479 1468 1467 1464 1461 1462 1478 1491 1493 1490 1494 1502 1504
1515 1514 1512 1510 1508 1507 1506 1504 1502 1501 1499 1497 1496 1494 1492 1491 1487 1486 1486 1486 1487 1489 1493 1495 1494 1492 1490 1484 1479 1479 1474 1480 1467 1466 1467 1463 1463 1463 1461 1473 1479 1485 1489 1498 1501
1515 1513 1511 1509 1508 1506 1505 1503 1502 1500 1498 1496 1495 1494 1492 1492 1488 1485 1486 1486 1487 1489 1493 1495 1494 1492 1489 1481 1476 1474 1470 1468 1465 1466 1464 1464 1465 1465 1470 1469 1475 1484 1490 1496 1495
1515 1513 1511 1509 1507 1506 1504 1502 1501 1499 1497 1496 1494 1493 1493 1492 1485 1484 1485 1486 1487 1490 1493 1494 1493 1491 1487 1480 1474 1469 1465 1465 1465 1465 1464 1461 1466 1468 1473 1475 1477 1483 1488 1492 1495
1514 1512 1510 1508 1506 1505 1502 1501 1499 1498 1496 1495 1493 1492 1491 1490 1488 1483 1484 1485 1489 1491 1492 1493 1492 1490 1487 1482 1474 1470 1468 1464 1465 1464 1460 1461 1472 1478 1476 1474 1476 1481 1486 1489 1493
1512 1511 1509 1507 1505 1503 1501 1499 1497 1496 1494 1493 1493 1492 1488 1485 1486 1486 1487 1489 1490 1491 1492 1491 1492 1490 1486 1481 1473 1469 1466 1476 1459 1465 1457 1461 1479 1470 1466 1471 1470 1477 1481 1485 1491
1511 1509 1507 1506 1504 1502 1500 1497 1495 1493 1492 1491 1492 1491 1485 1481 1482 1484 1487 1488 1489 1490 1491 1491 1491 1490 1485 1481 1479 1466 1476 1466 1489 1469 1456 1458 1467 1461 1458 1460 1459 1465 1473 1479 1484
1510 1508 1506 1504 1502 1500 1498 1495 1491 1490 1489 1489 1490 1494 1482 1479 1479 1481 1484 1487 1488 1489 1490 1491 1489 1486 1481 1478 1488 1468 1464 1486 1523 1484 1459 1457 1454 1455 1460 1455 1459 1461 1473 1481 1486
1508 1507 1505 1503 1501 1499 1497 1493 1493 1492 1489 1483 1481 1478 1476 1478 1479 1480 1483 1485 1487 1487 1486 1485 1487 1484 1474 1467 1464 1458 1459 1463 1488 1457 1459 1461 1453 1449 1453 1456 1453 1455 1462 1470 1476
1506 1505 1504 1502 1500 1499 1497 1496 1496 1497 1486 1478 1475 1475 1474 1475 1477 1478 1481 1483 1483 1482 1481 1480 1483 1471 1466 1462 1462 1460 1463 1464 1455 1450 1454 1455 1456 1451 1461 1471 1471 1468 1465 1467 1464
1504 1503 1502 1501 1500 1499 1498 1498 1496 1496 1488 1468 1464 1466 1468 1473 1470 1470 1477 1477 1476 1477 1473 1476 1463 1459 1465 1464 1467 1465 1466 1462 1460 1449 1445 1452 1460 1453 1471 1466 1468 1459 1458 1461 1467
1502 1501 1500 1500 1501 1498 1498 1497 1497 1496 1488 1458 1454 1458 1462 1467 1466 1465 1469 1474 1470 1471 1468 1465 1460 1458 1463 1465 1463 1472 1455 1458 1460 1464 1473 1447 1474 1450 1465 1467 1467 1467 1461 1463 1469
1500 1499 1499 1498 1498 1498 1499 1498 1497 1497 1500 1439 1449 1454 1458 1462 1452 1457 1463 1470 1468 1464 1465 1463 1458 1460 1462 1461 1457 1465 1452 1456 1459 1464 1466 1462 1468 1461 1455 1477 1471 1467 1463 1460 1469
1498 1496 1496 1498 1495 1496 1497 1497 1497 1497 1489 1443 1445 1452 1454 1456 1452 1451 1458 1465 1466 1462 1456 1455 1448 1450 1453 1451 1454 1455 1457 1461 1464 1465 1482 1463 1465 1465 1466 1472 1464 1457 1459 1465 1473
1495 1493 1492 1493 1493 1494 1497 1497 1495 1490 1442 1440 1440 1442 1446 1447 1450 1449 1455 1459 1466 1473 1469 1453 1452 1449 1453 1454 1450 1456 1467 1487 1493 1486 1483 1453 1457 1451 1441 1450 1451 1457 1461 1469 1477
1490 1489 1487 1487 1490 1495 1497 1494 1493 1456 1451 1431 1429 1430 1439 1437 1439 1444 1451 1458 1456 1454 1455 1464 1468 1447 1444 1452 1454 1455 1464 1479 1496 1486 1485 1467 1494 1471 1437 1446 1449 1452 1460 1468 1476
1487 1485 1484 1483 1486 1492 1495 1488 1473 1460 1441 1434 1432 1444 1440 1435 1432 1436 1446 1449 1447 1449 1459 1454 1449 1425 1433 1440 1448 1451 1464 1453 1466 1456 1469 1464 1458 1449 1441 1448 1453 1456 1462 1469 1477
1484 1482 1479 1482 1486 1490 1489 1479 1459 1452 1443 1443 1448 1441 1446 1432 1433 1435 1435 1436 1440 1439 1442 1444 1457 1432 1427 1434 1441 1447 1443 1467 1464 1490 1488 1457 1456 1465 1457 1466 1459 1460 1464 1470 1478
1485 1480 1470 1478 1483 1485 1477 1469 1459 1452 1450 1451 1450 1448 1438 1433 1425 1431 1432 1427 1427 1431 1433 1437 1447 1445 1429 1438 1447 1447 1453 1447 1447 1452 1469 1470 1487 1468 1469 1463 1465 1463 1465 1470 1477
1486 1478 1473 1476 1480 1475 1468 1465 1459 1449 1448 1451 1454 1449 1444 1434 1432 1430 1431 1424 1419 1423 1431 1432 1441 1455 1441 1427 1432 1431 1438 1443 1461 1466 1450 1452 1477 1461 1477 1471 1457 1465 1465 1470 1476
1486 1475 1471 1474 1471 1465 1462 1459 1454 1450 1446 1449 1451 1450 1444 1443 1447 1435 1430 1420 1419 1422 1430 1427 1442 1459 1453 1435 1427 1434 1432 1433 1440 1446 1457 1466 1466 1469 1469 1466 1454 1455 1466 1470 1475
1489 1469 1468 1468 1467 1461 1452 1448 1447 1446 1444 1448 1446 1446 1445 1447 1441 1444 1435 1423 1427 1428 1432 1434 1438 1447 1453 1442 1435 1437 1432 1429 1433 1450 1450 1446 1461 1460 1458 1455 1456 1469 1470 1474 1478
1487 1471 1464 1455 1457 1458 1456 1450 1441 1441 1443 1448 1447 1444 1442 1448 1445 1443 1437 1429 1426 1432 1435 1437 1447 1437 1432 1428 1426 1427 1427 1426 1432 1429 1445 1439 1446 1462 1459 1459 1463 1474 1475 1477 1481
1489 1482 1474 1468 1464 1458 1447 1450 1445 1437 1440 1442 1446 1441 1441 1443 1442 1442 1438 1436 1432 1428 1435 1435 1446 1441 1440 1428 1423 1427 1421 1419 1421 1424 1425 1425 1468 1466 1464 1467 1468 1478 1482 1481 1482
1493 1489 1486 1473 1466 1459 1449 1443 1444 1444 1438 1437 1437 1440 1441 1439 1439 1437 1433 1434 1431 1434 1432 1437 1439 1445 1450 1432 1427 1435 1423 1421 1418 1419 1422 1441 1456 1466 1475 1474 1474 1484 1481 1481 1482
Wind_Speed
9 9 9 10 11 12 12 12 13 12 11 10 10 10 8 8 10 11 12 7 8 10 9 6 10 11 12 16 17 14 6 5 3 19 5 6 4 6 15 36 38 39 15 27 24
9 9 10 10 11 12 13 13 14 14 11 11 11 10 9 10 13 14 9 8 12 9 10 11 10 11 14 14 15 12 7 7 16 19 12 13 1 11 20 30 17 17 9 17 22
9 9 9 10 11 12 13 14 14 13 12 11 11 10 9 11 6 3 4 6 7 9 9 10 8 10 14 17 17 16 9 28 23 3 11 11 15 2 37 18 5 34 19 17 18
9 10 10 10 11 12 12 13 13 13 13 12 11 10 8 7 3 2 3 4 7 11 12 11 11 11 13 14 17 15 16 32 12 9 11 11 20 12 10 15 16 24 24 20 18
9 10 11 12 12 12 13 13 13 13 13 12 11 9 8 6 6 4 5 5 10 16 12 13 13 12 13 15 15 13 15 21 12 13 15 7 11 13 34 17 25 21 22 19 15
10 10 11 12 13 13 13 13 14 14 14 12 10 9 7 9 5 3 7 7 11 14 12 13 10 13 17 17 19 19 17 17 23 13 17 10 13 20 13 23 26 22 18 16 17
10 11 11 12 13 13 14 14 14 14 14 12 10 9 8 13 3 3 9 8 12 11 11 12 13 12 16 14 20 18 19 14 15 20 20 7 13 4 8 20 9 17 17 18 18
10 11 11 12 13 14 14 14 14 15 14 11 10 8 8 8 6 10 11 10 11 11 11 10 12 15 19 16 23 13 16 14 17 27 4 4 4 13 22 26 13 14 15 16 16
11 12 12 12 13 14 14 14 15 15 13 10 3 5 11 7 10 13 14 13 11 10 9 9 10 15 16 14 14 15 16 20 12 38 10 4 8 16 28 30 16 17 17 17 17
10 11 12 13 14 15 13 15 14 15 11 7 7 7 13 9 10 14 15 14 12 10 9 10 9 12 13 14 13 17 14 14 7 27 12 10 9 13 17 10 13 20 19 13 17
11 11 12 12 13 14 11 15 10 1 6 14 3 13 2 5 8 14 16 15 13 13 13 15 11 14 17 18 18 21 19 14 32 10 4 9 10 6 8 1 12 16 34 23 15
13 12 12 12 11 10 6 9 5 9 13 19 24 24 19 10 11 14 18 16 17 14 15 13 15 18 17 17 17 16 16 16 12 9 4 9 12 12 17 21 49 34 16 13 14
14 13 13 11 9 5 6 8 8 11 9 19 24 23 20 18 19 18 23 23 17 16 16 16 12 17 15 16 15 15 14 15 14 14 5 11 13 15 9 32 26 31 4 6 11
15 14 13 9 5 5 8 3 7 8 6 12 15 12 18 19 17 25 25 25 15 16 17 16 18 17 8 16 14 14 13 12 13 13 12 10 10 11 16 15 5 40 8 6 9
14 13 10 9 9 5 4 7 9 5 6 8 16 12 17 18 3 24 26 24 20 18 12 17 14 15 17 12 14 14 12 7 8 12 14 17 10 7 10 7 9 13 45 6 13
14 14 9 4 10 10 9 8 7 6 9 10 13 12 15 22 15 8 27 23 22 20 18 17 18 12 14 14 13 12 14 6 12 12 13 15 15 7 7 11 5 14 5 15 12
15 15 13 13 10 2 7 7 6 9 8 9 14 14 17 17 18 13 19 20 18 16 18 18 18 12 11 13 13 11 12 9 11 11 13 12 16 12 18 16 12 13 14 15 25
16 15 14 16 15 7 7 9 11 10 23 11 3 13 19 20 18 19 16 18 23 23 13 14 14 20 16 16 14 16 14 12 15 7 3 11 3 14 16 14 11 15 18 20 25
16 8 14 9 15 11 12 12 9 17 17 10 11 14 13 16 17 18 18 19 21 23 19 14 18 11 19 14 15 13 12 17 18 19 9 11 12 16 8 12 11 13 15 16 26
19 12 16 10 13 15 11 17 17 24 19 13 10 14 15 17 12 13 17 18 20 22 21 20 14 14 10 16 16 17 11 10 10 16 16 9 10 7 9 8 3 9 12 14 26
12 8 4 19 14 17 14 20 19 31 15 7 11 16 18 19 13 18 18 16 18 20 21 18 14 15 11 12 14 11 15 14 12 12 13 11 5 4 3 5 6 8 12 16 22
7 7 13 14 13 17 15 22 27 22 17 14 14 18 19 17 14 8 15 16 17 16 19 14 8 13 17 12 12 17 15 17 9 13 12 8 4 16 7 4 18 23 14 16 23
8 16 10 15 10 13 19 24 25 22 16 12 14 16 16 16 13 11 17 12 11 13 5 14 9 11 13 14 14 17 16 15 13 13 14 9 3 12 20 4 27 16 15 16 28
7 4 13 15 21 20 17 19 22 27 18 18 15 17 16 14 15 13 16 10 6 10 10 7 9 11 14 11 6 9 12 14 15 10 14 15 7 6 7 9 19 19 10 19 27
7 7 14 7 12 17 19 19 21 18 14 19 18 18 16 16 15 17 17 18 10 6 9 8 13 15 19 17 13 13 19 17 18 16 13 10 7 15 11 6 6 14 5 14 17
15 12 19 22 18 16 12 20 19 18 18 18 18 17 15 15 14 13 15 15 14 13 12 13 12 13 18 20 18 13 15 10 14 16 19 17 18 11 19 18 14 14 11 15 15
14 12 11 14 15 12 12 15 19 19 21 25 15 17 17 17 20 20 21 10 11 11 7 14 12 12 16 18 18 16 9 13 14 13 14 3 15 17 11 8 22 24 18 18 17
Wind_Direction
13 9 8 5 0 357 356 354 350 348 345 342 340 332 323 306 296 282 264 235 250 238 210 213 220 242 255 258 258 279 52 353 160 276 146 197 93 200 79 81 356 352 137 139 147
7 2 0 358 356 354 351 349 347 346 345 343 340 332 322 309 301 280 248 245 242 218 197 196 217 231 245 259 251 237 90 281 225 220 350 326 334 23 90 97 153 302 24 136 143
358 353 350 351 349 349 346 346 345 344 342 339 337 330 323 320 318 224 233 255 230 197 183 194 227 236 251 253 244 247 178 223 254 355 311 331 303 235 126 129 171 206 178 163 153
346 343 342 342 341 341 340 341 341 341 339 335 333 328 322 317 356 249 223 228 187 166 183 210 229 235 258 254 253 245 272 195 290 328 305 313 344 337 349 163 160 163 149 164 159
335 335 334 334 334 334 333 334 334 337 336 332 328 324 325 286 255 277 228 184 171 168 197 208 224 238 250 259 255 255 267 283 286 290 299 332 310 349 10 126 137 151 159 169 150
329 329 328 328 328 328 326 328 326 329 329 327 323 317 309 255 273 244 221 183 173 176 203 211 226 233 259 282 286 273 251 261 273 291 284 287 41 58 359 320 142 146 160 168 163
327 325 325 324 324 323 323 322 320 322 320 319 316 310 278 247 194 205 195 186 180 192 210 219 232 252 249 265 265 271 272 274 273 257 254 285 51 78 233 252 161 151 167 171 165
323 322 323 324 323 321 320 317 313 314 311 308 303 303 269 200 202 200 191 194 204 213 234 236 234 263 265 275 282 265 268 266 260 301 236 225 148 229 220 233 156 171 176 166 166
321 322 323 325 323 320 320 314 308 305 301 295 309 310 268 241 211 206 200 200 203 216 229 231 236 244 253 249 263 250 251 242 33 299 283 211 157 206 214 216 181 171 179 170 166
316 318 321 323 326 324 325 316 304 297 288 271 234 261 236 243 216 198 197 205 205 206 204 226 231 243 233 244 246 256 262 98 65 269 206 247 267 161 235 173 188 188 166 178 174
314 317 319 322 325 329 341 332 314 335 258 244 202 242 134 195 173 195 195 198 202 213 224 197 219 228 237 225 260 286 302 320 191 217 279 286 289 327 193 196 229 198 148 178 175
307 308 311 317 321 329 333 326 21 322 298 265 258 249 250 204 201 205 193 197 204 218 219 228 232 245 247 258 267 275 285 288 294 276 251 296 295 291 81 74 291 299 187 160 148
302 299 299 308 318 332 318 302 315 328 273 283 243 230 218 216 229 200 197 205 204 225 224 228 245 212 242 257 253 265 268 285 278 303 246 265 267 264 112 148 240 284 147 177 169
307 298 293 288 310 277 287 282 326 323 278 257 192 225 208 206 236 229 198 208 238 229 229 248 240 261 252 240 250 255 252 249 285 292 281 285 290 279 150 182 234 318 181 186 136
310 305 288 279 272 243 301 308 307 292 282 114 160 146 192 193 170 205 194 209 225 232 241 242 236 241 244 241 234 254 269 299 288 276 275 270 272 35 77 72 83 346 282 125 125
311 301 291 293 268 243 286 300 291 234 240 185 147 196 191 209 238 182 197 206 228 248 243 250 242 233 241 234 246 241 261 242 272 268 262 253 259 203 132 212 216 206 164 110 108
310 292 271 238 212 214 261 262 224 237 216 237 177 200 209 207 218 202 198 197 218 222 241 237 243 229 245 253 217 226 248 235 245 236 246 293 238 260 139 161 175 174 123 126 125
311 283 267 242 228 273 259 230 235 245 241 310 306 202 206 217 195 203 204 217 218 233 242 221 234 220 210 229 239 206 239 239 247 237 272 353 21 294 113 111 120 133 152 145 142
319 284 270 238 221 212 230 221 224 241 284 277 215 248 259 239 251 195 204 218 218 222 242 259 244 212 209 193 238 241 213 251 269 282 243 199 233 219 132 116 127 139 159 149 147
322 297 244 223 203 198 226 239 236 252 287 295 269 260 243 249 215 242 204 215 227 219 226 256 275 282 197 191 208 246 226 233 240 263 275 254 229 134 62 31 127 157 165 147 140
325 268 143 172 182 208 222 232 239 262 298 265 275 262 268 267 235 218 242 228 214 223 227 224 255 273 254 202 234 209 239 250 252 235 249 271 65 134 119 242 302 205 170 154 145
292 249 177 179 197 223 230 235 255 262 235 230 264 281 287 284 288 275 261 252 228 212 222 218 231 243 263 200 226 259 226 228 242 248 266 284 164 149 151 300 255 235 162 163 152
293 260 203 201 230 230 234 246 247 251 254 247 234 256 264 278 286 267 267 288 352 188 283 218 213 250 252 266 197 216 236 220 222 268 279 291 166 155 159 127 222 151 157 143 139
288 249 227 209 242 259 257 242 234 242 251 233 248 238 259 245 257 264 267 264 175 268 25 340 279 220 247 234 6 234 239 253 247 228 243 249 112 72 359 5 17 341 158 127 136
249 265 342 239 222 232 256 267 271 226 206 247 260 246 236 245 245 240 253 278 184 200 258 257 262 261 241 268 269 265 243 220 248 238 254 282 146 182 153 127 25 303 164 141 145
312 343 334 303 311 295 254 242 257 272 224 225 237 254 238 255 242 246 241 258 278 189 210 248 244 260 267 274 262 230 256 259 227 245 244 256 106 162 148 175 211 251 176 167 159
341 319 303 294 287 274 277 267 237 259 274 239 215 235 246 239 251 248 264 292 296 316 196 217 240 239 253 250 263 270 256 276 253 266 282 333 147 158 171 160 211 210 183 173 145